Komatsu AB, Japan

7:42 PM JST on May 27, 2017 (GMT +0900)
Komatsu

Weather History for RJNK - October, 2013

Change the Weather History Date:

Wednesday, October 9, 2013

  Actual Average Record
Temperature  
Mean Temperature 79 °F -  
Max Temperature 89 °F 65 °F 89 °F (2013)
Min Temperature 69 °F 50 °F 46 °F (1997)
Cooling Degree Days 14    
Growing Degree Days 29 (Base 50)    
Moisture  
Dew Point 66 °F    
Average Humidity 71    
Maximum Humidity 100    
Minimum Humidity 46    
Precipitation  
Precipitation 0.00 in - - ()
Sea Level Pressure  
Sea Level Pressure 29.81 in    
Wind  
Wind Speed 10 mph ()    
Max Wind Speed 32 mph    
Max Gust Speed 47 mph    
Visibility 5.7 miles    
Events Rain    
Averages and records for this station are not official NWS values.
T = Trace of Precipitation, MM = Missing Value Source: Averaged Metar Reports

Daily Weather History Graph

Daily Weather History Graph

Search for Another Location

Airport or City:

Trip Planner

Search our weather history database for the weather conditions in past years. The results will help you decide how hot, cold, wet, or windy it might be!

Date:

Astronomy

Oct. 09, 2013 Rise Set
Actual Time 5:55 AM JST 5:26 PM JST
Civil Twilight 5:30 AM JST 5:52 PM JST
Nautical Twilight 5:00 AM JST 6:22 PM JST
Astronomical Twilight 4:30 AM JST 6:52 PM JST
Moon 10:06 AM JST (10/9) 8:30 PM JST (10/9)
Length of Visible Light 12h 22m
Length of Day
11h 30m
Waxing Crescent, 20% of the Moon is Illuminated
Oct 9
Waxing Crescent
Oct 12
First Quarter
Oct 19
Full
Oct 27
Last Quarter
Nov 3
New

Hourly Weather History & Observations

Time (JST) Temp. Heat Index Dew Point Humidity Pressure Visibility Wind Dir Wind Speed Gust Speed Precip Events Conditions
12:00 AM 73.4 °F - 68.0 °F 83% 29.86 in 6.2 mi Variable 2.3 mph - N/A   Mostly Cloudy
1:00 AM 73.4 °F - 68.0 °F 83% 29.83 in 6.2 mi Variable 2.3 mph - N/A   Mostly Cloudy
2:00 AM 75.2 °F - 64.4 °F 69% 29.77 in 6.2 mi Variable 2.3 mph - N/A   Mostly Cloudy
3:00 AM 77.0 °F - 62.6 °F 61% 29.74 in 6.2 mi East 4.6 mph - N/A   Mostly Cloudy
4:00 AM 77.0 °F - 64.4 °F 65% 29.74 in 6.2 mi Variable 3.5 mph - N/A Rain Light Rain
5:00 AM 78.8 °F - 62.6 °F 57% 29.68 in 6.2 mi South 9.2 mph - N/A   Scattered Clouds
6:00 AM 82.4 °F 83.4 °F 62.6 °F 51% 29.65 in 6.2 mi South 13.8 mph 25.3 mph N/A   Mostly Cloudy
7:00 AM 84.2 °F 85.0 °F 62.6 °F 48% 29.65 in 6.2 mi South 15.0 mph 26.5 mph N/A   Mostly Cloudy
8:00 AM 82.4 °F 83.4 °F 62.6 °F 51% 29.65 in 6.2 mi South 20.7 mph 35.7 mph N/A   Mostly Cloudy
9:00 AM 86.0 °F 87.3 °F 64.4 °F 48% 29.65 in 6.2 mi South 26.5 mph 40.3 mph N/A   Mostly Cloudy
10:00 AM 87.8 °F 90.4 °F 66.2 °F 49% 29.65 in 6.2 mi South 25.3 mph 39.1 mph N/A   Partly Cloudy
11:00 AM 89.6 °F 92.2 °F 66.2 °F 46% 29.68 in 6.2 mi SSW 32.2 mph 44.9 mph N/A   Mostly Cloudy
12:00 PM 86.0 °F 88.2 °F 66.2 °F 51% 29.71 in 6.2 mi SW 32.2 mph 47.2 mph N/A Rain Light Rain Showers
1:00 PM 80.6 °F 83.2 °F 68.0 °F 65% 29.80 in 6.2 mi SW 31.1 mph 46.0 mph N/A   Mostly Cloudy
2:00 PM 77.0 °F - 68.0 °F 74% 29.83 in 6.2 mi SW 28.8 mph 40.3 mph N/A   Mostly Cloudy
3:00 PM 75.2 °F - 68.0 °F 78% 29.89 in 6.2 mi WSW 25.3 mph - N/A Rain Light Rain Showers
4:00 PM 75.2 °F - 68.0 °F 78% 29.92 in 6.2 mi West 17.3 mph - N/A   Mostly Cloudy
5:00 PM 73.4 °F - 68.0 °F 83% 29.92 in 6.2 mi West 10.4 mph - N/A Rain Light Rain Showers
6:00 PM 71.6 °F - 69.8 °F 94% 29.95 in 6.2 mi West 4.6 mph - N/A Rain Light Rain Showers
7:00 PM 71.6 °F - 69.8 °F 94% 29.95 in 6.2 mi WNW 3.5 mph - N/A Rain Light Rain Showers
8:00 PM 71.6 °F - 69.8 °F 94% 29.98 in 2.2 mi NNW 5.8 mph - N/A Rain Rain Showers
9:00 PM 69.8 °F - 69.8 °F 100% 29.98 in 1.9 mi NNW 6.9 mph - N/A Rain Light Rain Showers
10:00 PM 69.8 °F - 68.0 °F 94% 30.01 in 2.5 mi NNE 5.8 mph - N/A Rain Light Rain Showers
11:00 PM 69.8 °F - 68.0 °F 94% 30.01 in 6.2 mi East 4.6 mph - N/A Rain Light Rain Showers